TimeCDT,TemperatureF,Dew PointF,Humidity,Sea Level PressureIn,VisibilityMPH,Wind Direction,Wind SpeedMPH,Gust SpeedMPH,PrecipitationIn,Events,Conditions,WindDirDegrees,DateUTC
12:15 AM,33.8,32.0,93,29.50,10.0,WNW,23.0,27.6,N/A,,Overcast,300,2014-03-14 05:15:00
12:35 AM,33.8,32.0,93,29.51,10.0,WNW,23.0,27.6,N/A,,Overcast,300,2014-03-14 05:35:00
12:55 AM,35.6,32.0,87,29.51,10.0,WNW,24.2,31.1,N/A,,Overcast,300,2014-03-14 05:55:00
1:15 AM,33.8,32.0,93,29.51,10.0,WNW,23.0,31.1,N/A,,Overcast,300,2014-03-14 06:15:00
1:35 AM,33.8,32.0,93,29.52,10.0,WNW,19.6,-,N/A,,Overcast,300,2014-03-14 06:35:00
1:55 AM,33.8,32.0,93,29.53,8.0,WNW,19.6,26.5,N/A,Rain,Light Rain,300,2014-03-14 06:55:00
2:15 AM,33.8,32.0,93,29.54,10.0,WNW,18.4,25.3,N/A,,Overcast,300,2014-03-14 07:15:00
2:35 AM,33.8,32.0,93,29.54,10.0,WNW,19.6,-,N/A,Rain,Light Rain,300,2014-03-14 07:35:00
2:55 AM,33.8,32.0,93,29.55,10.0,NW,19.6,-,N/A,Rain,Light Rain,310,2014-03-14 07:55:00
3:15 AM,33.8,32.0,93,29.55,10.0,NW,18.4,-,N/A,,Overcast,310,2014-03-14 08:15:00
3:35 AM,33.8,32.0,93,29.56,10.0,NW,18.4,-,N/A,,Overcast,320,2014-03-14 08:35:00
3:55 AM,33.8,32.0,93,29.57,10.0,NNW,19.6,25.3,N/A,,Overcast,340,2014-03-14 08:55:00
4:15 AM,32.0,30.2,93,29.57,10.0,North,21.9,26.5,N/A,Rain,Light Rain,350,2014-03-14 09:15:00
4:35 AM,32.0,28.4,87,29.58,10.0,North,19.6,23.0,N/A,,Overcast,350,2014-03-14 09:35:00
4:55 AM,30.2,24.8,80,29.59,10.0,North,21.9,26.5,N/A,,Overcast,350,2014-03-14 09:55:00
5:15 AM,28.4,24.8,86,29.60,7.0,North,19.6,28.8,N/A,Rain,Freezing Rain,350,2014-03-14 10:15:00
5:35 AM,24.8,19.4,80,29.62,10.0,North,23.0,31.1,N/A,Rain,Freezing Rain,350,2014-03-14 10:35:00
5:55 AM,24.8,19.4,80,29.63,10.0,North,21.9,31.1,N/A,,Overcast,350,2014-03-14 10:55:00
6:15 AM,23.0,17.6,80,29.65,10.0,North,21.9,29.9,N/A,,Overcast,350,2014-03-14 11:15:00
6:35 AM,19.4,14.0,80,29.66,10.0,North,23.0,-,N/A,,Overcast,360,2014-03-14 11:35:00
6:55 AM,19.4,14.0,80,29.67,10.0,North,25.3,28.8,N/A,,Overcast,350,2014-03-14 11:55:00
7:15 AM,17.6,12.2,79,29.69,10.0,North,23.0,-,N/A,,Overcast,360,2014-03-14 12:15:00
7:35 AM,17.6,12.2,79,29.70,10.0,North,23.0,28.8,N/A,Snow,Light Snow,360,2014-03-14 12:35:00
7:55 AM,15.8,10.4,79,29.71,10.0,North,20.7,28.8,N/A,Snow,Light Snow,360,2014-03-14 12:55:00
8:15 AM,15.8,10.4,79,29.73,9.0,North,21.9,27.6,N/A,Snow,Light Snow,350,2014-03-14 13:15:00
8:35 AM,15.8,10.4,79,29.74,8.0,NNW,24.2,-,N/A,Snow,Light Snow,340,2014-03-14 13:35:00
8:55 AM,14.0,8.6,79,29.75,7.0,North,19.6,23.0,0.01,Snow,Light Snow,350,2014-03-14 13:55:00
9:15 AM,14.0,8.6,79,29.76,10.0,NNW,19.6,-,N/A,Snow,Light Snow,340,2014-03-14 14:15:00
9:35 AM,14.0,8.6,79,29.77,8.0,NNW,21.9,27.6,N/A,Snow,Light Snow,340,2014-03-14 14:35:00
9:55 AM,15.8,8.6,73,29.79,9.0,North,16.1,-,0.01,Snow,Light Snow,350,2014-03-14 14:55:00
10:15 AM,15.8,8.6,73,29.79,9.0,NNW,19.6,-,N/A,Snow,Light Snow,340,2014-03-14 15:15:00
10:35 AM,15.8,8.6,73,29.79,10.0,North,24.2,27.6,N/A,Snow,Light Snow,350,2014-03-14 15:35:00
10:55 AM,15.8,8.6,73,29.80,10.0,North,21.9,28.8,N/A,,Overcast,360,2014-03-14 15:55:00
11:15 AM,15.8,8.6,73,29.80,10.0,North,19.6,-,N/A,,Overcast,350,2014-03-14 16:15:00
11:35 AM,17.6,8.6,68,29.82,10.0,North,18.4,-,N/A,,Overcast,350,2014-03-14 16:35:00
11:55 AM,15.8,8.6,73,29.83,10.0,North,16.1,-,N/A,,Overcast,360,2014-03-14 16:55:00
12:15 PM,17.6,8.6,68,29.83,10.0,North,18.4,23.0,N/A,,Overcast,350,2014-03-14 17:15:00
12:35 PM,17.6,10.4,73,29.83,10.0,North,15.0,20.7,N/A,,Overcast,350,2014-03-14 17:35:00
12:55 PM,17.6,10.4,73,29.83,10.0,North,13.8,-,N/A,,Overcast,350,2014-03-14 17:55:00
1:15 PM,17.6,10.4,73,29.84,10.0,North,15.0,-,N/A,,Overcast,360,2014-03-14 18:15:00
1:35 PM,17.6,10.4,73,29.84,10.0,North,13.8,-,N/A,,Overcast,350,2014-03-14 18:35:00
1:55 PM,19.4,10.4,68,29.84,10.0,North,17.3,21.9,N/A,,Overcast,10,2014-03-14 18:55:00
2:15 PM,19.4,10.4,68,29.85,10.0,North,15.0,-,N/A,,Mostly Cloudy,10,2014-03-14 19:15:00
2:35 PM,19.4,10.4,68,29.86,10.0,North,12.7,-,N/A,,Mostly Cloudy,360,2014-03-14 19:35:00
2:55 PM,19.4,10.4,68,29.86,10.0,North,13.8,-,N/A,,Mostly Cloudy,350,2014-03-14 19:55:00
3:15 PM,19.4,10.4,68,29.87,10.0,North,15.0,18.4,N/A,,Overcast,350,2014-03-14 20:15:00
3:35 PM,19.4,10.4,68,29.88,10.0,North,15.0,18.4,N/A,,Overcast,10,2014-03-14 20:35:00
3:55 PM,19.4,10.4,68,29.88,10.0,North,12.7,-,N/A,,Mostly Cloudy,360,2014-03-14 20:55:00
4:15 PM,19.4,10.4,68,29.89,10.0,North,12.7,-,N/A,,Partly Cloudy,350,2014-03-14 21:15:00
4:35 PM,19.4,10.4,68,29.89,10.0,North,13.8,-,N/A,,Scattered Clouds,360,2014-03-14 21:35:00
4:55 PM,19.4,10.4,68,29.90,10.0,North,12.7,16.1,N/A,,Mostly Cloudy,350,2014-03-14 21:55:00
5:15 PM,19.4,10.4,68,29.90,10.0,North,12.7,-,N/A,,Mostly Cloudy,350,2014-03-14 22:15:00
5:35 PM,17.6,8.6,68,29.91,10.0,North,12.7,-,N/A,,Scattered Clouds,360,2014-03-14 22:35:00
5:55 PM,17.6,8.6,68,29.91,10.0,North,13.8,-,N/A,,Partly Cloudy,10,2014-03-14 22:55:00
6:15 PM,17.6,8.6,68,29.92,10.0,North,11.5,-,N/A,,Partly Cloudy,360,2014-03-14 23:15:00
6:35 PM,15.8,8.6,73,29.93,10.0,North,11.5,-,N/A,,Partly Cloudy,350,2014-03-14 23:35:00
6:55 PM,15.8,8.6,73,29.94,10.0,North,11.5,-,N/A,,Scattered Clouds,350,2014-03-14 23:55:00
7:15 PM,14.0,8.6,79,29.95,10.0,North,11.5,-,N/A,,Clear,350,2014-03-15 00:15:00
7:35 PM,14.0,6.8,73,29.96,10.0,North,10.4,-,N/A,,Clear,350,2014-03-15 00:35:00
7:55 PM,12.2,6.8,79,29.96,10.0,North,11.5,-,N/A,,Clear,360,2014-03-15 00:55:00
8:15 PM,12.2,6.8,79,29.97,10.0,North,12.7,-,N/A,,Clear,360,2014-03-15 01:15:00
8:35 PM,10.4,6.8,85,29.98,10.0,North,10.4,-,N/A,,Clear,360,2014-03-15 01:35:00
8:55 PM,10.4,6.8,85,29.98,10.0,North,10.4,-,N/A,,Clear,360,2014-03-15 01:55:00
9:15 PM,10.4,5.0,79,29.98,10.0,North,10.4,-,N/A,,Clear,360,2014-03-15 02:15:00
9:35 PM,10.4,5.0,79,29.99,10.0,North,8.1,-,N/A,,Clear,10,2014-03-15 02:35:00
9:55 PM,8.6,5.0,85,29.99,10.0,North,8.1,-,N/A,,Clear,10,2014-03-15 02:55:00
10:15 PM,8.6,5.0,85,29.99,10.0,NNE,9.2,-,N/A,,Clear,20,2014-03-15 03:15:00
10:35 PM,8.6,3.2,79,29.99,10.0,NNE,8.1,-,N/A,,Clear,20,2014-03-15 03:35:00
10:55 PM,6.8,3.2,85,30.00,10.0,NNE,6.9,-,N/A,,Clear,30,2014-03-15 03:55:00
11:15 PM,6.8,1.4,79,30.00,10.0,NNE,9.2,-,N/A,,Clear,30,2014-03-15 04:15:00
11:35 PM,6.8,1.4,79,30.01,10.0,NE,6.9,-,N/A,,Clear,40,2014-03-15 04:35:00
11:55 PM,6.8,-0.4,72,30.01,10.0,NNE,8.1,-,N/A,,Clear,30,2014-03-15 04:55:00